Regional Weather Roundup
Issued by NWS

Home | Current Version | Previous Version | Text Only | Print | Product List | Glossary On
Versions: 1 2 3 4 5 6 7 8 9 10 11 12 13 14 15 16 17 18 19 20 21 22 23 24 25 26 27 28 29 30 31 32 33 34 35 36 37 38 39 40 41 42 43 44 45 46 47 48 49 50
000
ASUS43 KMKX 251411
RWRWI

WISCONSIN REGIONAL WEATHER ROUNDUP
NATIONAL WEATHER SERVICE MILWAUKEE/SULLIVAN WI
900 AM CDT SAT OCT 25 2014

NOTE: "FAIR" INDICATES FEW OR NO CLOUDS BELOW 12,000 FEET WITH NO
SIGNIFICANT WEATHER AND/OR OBSTRUCTIONS TO VISIBILITY.

WIZ001-002-006>008-014>016-023>028-251500-
NORTHWEST WISCONSIN

CITY           SKY/WX    TMP DP  RH WIND       PRES   REMARKS
SUPERIOR ARPT  SUNNY     50  33  52 W8G16     29.94R
ASHLAND        SUNNY     51  35  54 W13G18    29.88R
HAYWARD        SUNNY     50  33  52 W10G17    29.93R
SIREN          SUNNY     48  34  57 W8        29.98R
CUMBERLAND     SUNNY     48  32  53 NW12G17   29.97R
RICE LAKE      SUNNY     48  36  63 W8        29.98R
CHETEK         SUNNY     50  36  60 W8        29.96R
LADYSMITH      SUNNY     51  35  54 W14G21    29.94R
EAU CLAIRE     SUNNY     51  39  63 W8        29.96R
MENOMONIE      SUNNY     51  37  57 W8        29.98R
NEW RICHMOND   SUNNY     50  35  55 NW9       30.00R
OSCEOLA        SUNNY     51  35  53 NW10      30.03R
$$

WIZ003>005-009-010-017-018-251500-
NORTH CENTRAL WISCONSIN

CITY           SKY/WX    TMP DP  RH WIND       PRES   REMARKS
MANITOWISH WTR SUNNY     47  36  65 NW13G18   29.84R
ARBOR VITAE    SUNNY     49  37  63 W10G17    29.85R
WOODRUFF       SUNNY     49  37  63 W10G17    29.85R
RHINELANDER    SUNNY     49  35  58 W17G25    29.85R
EAGLE RIVER    SUNNY     49  33  54 W15G22    29.82R
LAND O LAKES   SUNNY     50  33  53 NW14G24   29.82R
PHILLIPS       SUNNY     48  35  61 W9        29.88R
TOMAHAWK       SUNNY     49  35  59 W13G23    29.87R
MEDFORD        SUNNY     48  38  67 W12       29.90R
MERRILL        SUNNY     51  36  55 NW13G22   29.87R
$$

WIZ029-030-035-036-043>047-251500-
CENTRAL WISCONSIN

CITY           SKY/WX    TMP DP  RH WIND       PRES   REMARKS
WAUSAU         SUNNY     50  40  68 NW14      29.87R
MOSINEE        NOT AVBL
MARSHFIELD     SUNNY     51  39  63 NW15      29.91R
STEVENS POINT  SUNNY     50  39  66 W9        29.90R
WAUPACA        SUNNY     55  44  64 W10       29.89R
WAUTOMA        CLOUDY    55  44  66 W10       29.92R
WISC RAPIDS    SUNNY     52  41  66 W12       29.93R
CAMP DOUGLAS   NOT AVBL
$$

WIZ011>013-019>022-031-037>040-048>050-251500-
NORTHEAST WISCONSIN

CITY           SKY/WX    TMP DP  RH WIND       PRES   REMARKS
ANTIGO         SUNNY     50  37  62 NW16G22   29.85S
SHAWANO        SUNNY     55  44  67 W8        29.85R
OCONTO         SUNNY     54  46  75 W14G20    29.80F
STURGEON BAY   SUNNY     54  46  76 W15       29.80S
GREEN BAY      SUNNY     55  47  74 W10       29.84S
MANITOWOC      SUNNY     57  49  74 W12       29.85R
APPLETON       SUNNY     52  48  87 W8        29.88R
CLINTONVILLE   SUNNY     52  45  76 W8        29.85S
OSHKOSH        SUNNY     54  48  80 W8        29.88R
$$

WIZ032>034-041-042-053>061-251500-
SOUTHWEST WISCONSIN

CITY           SKY/WX    TMP DP  RH WIND       PRES   REMARKS
LA CROSSE      SUNNY     51  50  96 CALM      29.99R
SPARTA         SUNNY     54  40  60 W7        29.98R
VIROQUA        SUNNY     52  47  82 W5        29.99R
BOSCOBEL       SUNNY     53  50  89 CALM      30.00R
PRAIRIE DU CHI SUNNY     51  48  87 CALM      30.01R
PLATTEVILLE    SUNNY     55  50  85 W9        30.00R
$$

WIZ056-057-062-063-064-067-068-251500-
SOUTH CENTRAL WISCONSIN

CITY           SKY/WX    TMP DP  RH WIND       PRES   REMARKS
REEDSBURG      SUNNY     55  44  68 NW6       29.96R
BARABOO/DELLS  SUNNY     55  44  67 W7        29.95R
LONE ROCK      SUNNY     57  51  80 W6        29.97R
MINERAL POINT  SUNNY     55  50  82 W6        29.98R
MADISON        MOSUNNY   57  50  77 W6        29.95R
MIDDLETON      SUNNY     58  53  83 W7        29.95R
WATERTOWN      SUNNY     55  50  81 W7        29.92R
MONROE         SUNNY     55  52  88 W9G17     29.97R
JANESVILLE     SUNNY     57  54  88 W9        29.94R
$$

WIZ051-052-058>065-066-070>072-251500-
SOUTHEAST WISCONSIN

CITY           SKY/WX    TMP DP  RH WIND       PRES   REMARKS
MILWAUKEE      MOSUNNY   58  49  72 NW10      29.90S
WAUKESHA       SUNNY     52  50  93 W9        29.92R FOG
MILWAUKEE/TIMM NOT AVBL
RACINE         SUNNY     58  51  78 W9        29.91R
BURLINGTON     SUNNY     56  50  79 NW13      29.92R
KENOSHA        SUNNY     58  53  84 W10       29.91R
FOND DU LAC    SUNNY     55  47  74 W10       29.90R
SHEBOYGAN      SUNNY     57  48  72 W10       29.87R
WEST BEND      SUNNY     55  46  71 W13G21    29.90R
JUNEAU         SUNNY     54  48  80 W7        29.93R
$$

LSZ147-162-251500-
LAKE SUPERIOR

STATION/POSITION TIME  TEMP    WIND        PRES    WAVE
                       AIR SEA DIR/SP/G            HT/PER
                 (UTC) (F)     (DEG/KT/KT) (MB)    (FT/S)
W MID LAKE BUOY  1350   49 46  260/ 19/ 23 1007.5R   5/ 5
DEVILS ISLAND    1400   50     270/ 24/ 27 1010.7R
PORT WING        1300   51     260/ 13/ 18 1011.9
SAXON HARBOR     1300   52     230/  5/ 12 1010.8R
$$

LMZ867-665-643>646-251500-
LAKE MICHIGAN

STATION/POSITION TIME  TEMP    WIND        PRES    WAVE
                       AIR SEA DIR/SP/G            HT/PER
                 (UTC) (F)     (DEG/KT/KT) (MB)    (FT/S)
CHAMBERS ISLAND  1300   54     210/  8/ 12 1008.1S
N MID LAKE BUOY  1350   53 51  260/ 16/ 17 1006.9R   3/ 5
NORTHPORT PIER   1300   55     270/  5/ 12 1007.8R
SISTER BAY       1213          290/ 12/ 13   N/A
ALGOMA LAKESHORE 1256          270/  8/ 12   N/A
KEWAUNEE LAKESHO 1300   54     280/  5/ 10 1008.9R
SHEBOYGAN LAKESH 1400   57 51  280/ 10/ 12 1011.7R
PORT WASHINGTON  1340   59     280/  5/  9 1012.5R
ATWATER BUOY     1400   56     270/  8/ 10 1013.6R
MILWAUKEE LAKESH 1300   57     290/  8/ 11   N/A
S MID LAKE BUOY  1350   56 54  260/ 12/ 14 1011.8R   1/ 3
KENOSHA   LAKESH 1400   58     290/ 11/ 17 1012.5R
$$

TC  - TEMPERATURE IN CELSIUS
VSB - VISIBILITY IN STATUTE MILES
WCI - WIND CHILL INDEX
HX  - HEAT INDEX




USA.gov is the U.S. government's official web portal to all federal, state and local government web resources and services.